[[{"header":{"parameterUnit":"m.s-1","parameterCategory":1,"la1":30.2991,"la2":30.254,"lo1":-89.0895,"lo2":-89.0444,"dy":0.0017,"dx":0.0017,"nx":28,"ny":28,"refTime":"2025-03-03T03:00:00:Z","depth":0,"parameterNumber":2,"parameterNumberName":"U-component_of_WINDS"},"data":[0,0,0,0,0,0,0,0,0,0,0,0,0,0,0,0,0,0,0,0,0,0,0,0,0,0,0,0,0,0,0,0,0,0,0,0,0,0,0,0,0,0,0,0,0,0,0,0,0,0,0,0,0,0,0,0,0,0,-5.0118,-5.0119,0,-5.0183,-5.0184,-5.0185,-5.0144,-5.0142,-5.014,-5.0138,-5.0206,-5.0209,-5.0213,0,0,0,0,0,0,0,0,0,0,0,0,0,-4.9959,-4.9962,-5.0118,-5.0119,-5.012,-5.0183,-5.0184,-5.0185,-5.0144,-5.0142,-5.014,-5.0138,-5.0204,-5.0209,-5.0213,0,0,0,0,0,0,0,0,0,0,0,0,0,-5.0027,-4.9963,-5.0118,-5.0107,-5.0107,-5.0183,-5.0184,-5.0185,-5.0145,-5.0142,-5.0139,-5.0136,-5.0203,-5.0208,-5.0214,-5.0304,0,0,-5.023,-5.0232,0,0,0,0,0,0,0,0,-5.0023,-5.0033,-5.0108,-5.0108,-5.0108,-5.0153,-5.0153,-5.0225,-5.0146,-5.013,-5.0138,-5.0135,-5.019,-5.0197,-5.0215,-5.0307,-5.031,-5.023,-5.0234,-5.0236,-5.0238,0,0,0,0,0,0,0,-5.0018,-5.003,-5.0144,-5.0109,-5.0109,-5.0099,-5.0106,-5.0166,-5.0176,-5.0132,-5.0129,-5.0137,-5.019,-5.021,-5.0216,-5.0311,-5.023,-5.0235,-5.0238,-5.024,-5.0482,-5.0485,0,0,0,0,0,0,-5.0014,-5.0026,-5.0142,-5.0146,-5.0057,-5.0104,-5.0112,-5.0141,-5.0175,-5.0177,-5.0139,-5.0135,-5.0202,-5.021,-5.0219,-5.0326,-5.0236,-5.0241,-5.0244,-5.0479,-5.0482,-5.0486,0,0,0,0,0,0,-5.0011,-5.0025,-5.0139,-5.0085,-5.0099,-5.011,-5.0144,-5.0144,-5.0164,-5.0181,-5.0182,-5.0158,-5.02,-5.0211,-5.0283,-5.0328,-5.0243,-5.0248,-5.0475,-5.048,-5.0484,-5.0543,0,0,0,0,0,0,-5.0007,-5.0024,-5.0058,-5.0086,-5.0102,-5.0202,-5.0147,-5.0147,-5.0173,-5.0168,-5.0199,-5.0201,-5.0199,-5.0276,-5.0289,-5.0334,-5.0252,-5.0471,-5.0477,-5.0483,-5.0537,-5.0549,-5.056,0,0,0,0,0,-5.0001,-5.0072,-5.006,-5.0074,-5.0145,-5.0205,-5.0214,-5.021,-5.0177,-5.0212,-5.0223,-5.02,-5.0322,-5.0283,-5.0298,-5.0345,-5.0468,-5.0475,-5.0482,-5.0532,-5.0547,-5.0559,0,0,0,0,0,0,-5.0049,-5.0076,-5.0062,-5.0145,-5.0173,-5.0198,-5.0241,-5.0226,-5.0263,-5.0257,-5.025,-5.0258,-5.0333,-5.0347,-5.0303,-5.0435,-5.039,-5.04,-5.0423,-5.0437,-5.0448,-5.0442,-5.0257,0,0,0,0,0,-5.0069,-5.0116,-5.0137,-5.0207,-5.0222,-5.023,-5.0256,-5.025,-5.0279,-5.0291,-5.0307,-5.0336,-5.0381,-5.041,-5.0452,-5.054,-5.0546,-5.058,-5.0591,-5.0601,-5.0609,-5.0656,-5.0671,-5.0509,-5.0509,-5.0509,0,0,-5.0111,-5.0132,-5.0161,-5.0218,-5.0239,-5.0287,-5.024,-5.0293,-5.0328,-5.0299,-5.0367,-5.0381,-5.0413,-5.0493,-5.053,-5.0507,-5.0655,-5.061,-5.0617,-5.062,-5.0665,-5.068,-5.0694,-5.0514,-5.0513,-5.0513,0,0,-5.0212,-5.0232,-5.0293,-5.0316,-5.0348,-5.0353,-5.0368,-5.0396,-5.0403,-5.0473,-5.0451,-5.0494,-5.0572,-5.0595,-5.0617,-5.0729,-5.071,-5.0744,-5.0801,-5.0847,-5.086,-5.0871,-5.091,-5.0924,-5.0752,-5.0753,-5.0753,0,-5.0259,-5.0331,-5.0326,-5.0381,-5.0406,-5.0383,-5.0444,-5.0466,-5.0511,-5.0529,-5.0504,-5.0601,-5.0621,-5.0706,-5.0734,-5.0753,-5.0769,-5.0738,-5.0859,-5.087,-5.088,-5.0917,-5.0932,-5.0756,-5.0756,-5.0755,-5.0755,0,-5.0387,-5.0438,-5.0483,-5.0527,-5.0558,-5.0616,-5.062,-5.0652,-5.0645,-5.0653,-5.0724,-5.0747,-5.0793,-5.0814,-5.0807,-5.0899,-5.0884,-5.0859,-5.0813,-5.0899,-5.0934,-5.0948,-5.0762,-5.076,-5.0759,-5.0758,0,0,-5.0517,-5.0559,-5.0575,-5.0595,-5.0631,-5.0669,-5.0727,-5.0772,-5.0799,-5.0833,-5.088,-5.0947,-5.0924,-5.095,-5.0946,-5.0987,-5.1073,-5.0957,-5.0957,-5.0976,-5.1174,-5.1191,-5.1207,-5.1061,-5.1064,-5.1066,-5.1171,0,-5.0618,-5.0717,-5.0716,-5.0808,-5.0854,-5.0834,-5.0884,-5.0911,-5.0921,-5.0962,-5.0972,-5.1019,-5.0987,-5.1002,-5.1041,-5.1054,-5.1112,-5.1047,-5.1105,-5.1107,-5.1094,-5.1225,-5.1243,-5.134,-5.1184,-5.1186,-5.1188,0,-5.0749,-5.0786,-5.0882,-5.0911,-5.0931,-5.0976,-5.1017,-5.1057,-5.1088,-5.1092,-5.1122,-5.1112,-5.1171,-5.1125,-5.1206,-5.1162,-5.1186,-5.1196,-5.12,-5.1203,-5.1151,-5.123,-5.1371,-5.1385,-5.121,-5.1208,-5.1206,0,-5.0831,-5.0906,-5.0973,-5.0991,-5.1027,-5.1059,-5.1076,-5.1104,-5.1132,-5.1169,-5.1187,-5.1231,-5.1254,-5.1289,-5.1291,-5.1258,-5.1372,-5.1327,-5.1377,-5.1377,-5.1399,-5.1397,-5.1544,-5.1419,-5.1419,-5.1419,-5.1418,0,-5.0943,-5.1003,-5.1011,-5.1052,-5.1118,-5.1117,-5.1183,-5.1197,-5.1223,-5.1266,-5.1252,-5.1294,-5.1296,-5.1339,-5.1341,-5.1407,-5.1419,-5.1423,-5.1423,-5.1423,-5.1422,-5.1437,-5.1429,-5.1423,-5.1422,-5.1421,-5.142,0,-5.1045,-5.1053,-5.1125,-5.1154,-5.1163,-5.121,-5.1235,-5.1274,-5.1283,-5.1339,-5.1352,-5.1366,-5.1416,-5.1423,-5.1481,-5.1483,-5.1562,-5.1556,-5.1551,-5.1549,-5.1598,-5.1592,-5.1757,-5.1778,-5.1642,-5.1643,-5.1644,0,-5.1115,-5.116,-5.1194,-5.1222,-5.1241,-5.1286,-5.1315,-5.1316,-5.1346,-5.1386,-5.1421,-5.1469,-5.1507,-5.1588,-5.1604,-5.1649,-5.1642,-5.1697,-5.1648,-5.1647,-5.164,-5.1637,-5.1641,-5.1705,-5.1707,-5.1708,-5.1709,0,-5.1237,-5.1239,-5.128,-5.1323,-5.1357,-5.1391,-5.1423,-5.1447,-5.1452,-5.1487,-5.1538,-5.1568,-5.1628,-5.1676,-5.172,-5.1738,-5.1724,-5.1724,-5.1738,-5.1737,-5.1732,-5.1734,-5.1574,-5.172,-5.1719,-5.1718,-5.1717,-5.1717,-5.1324,-5.1363,-5.1393,-5.1439,-5.1464,-5.1494,-5.1532,-5.1547,-5.1589,-5.1637,-5.1636,-5.1691,-5.1723,-5.1781,-5.1802,-5.1846,-5.1828,-5.1848,-5.1852,-5.1857,-5.1861,-5.1727,-5.1854,-5.1854,-5.1854,-5.1854,-5.1853,0,-5.1443,-5.1462,-5.1505,-5.155,-5.1587,-5.1572,-5.1607,-5.1638,-5.1687,-5.1718,-5.1756,-5.1814,-5.1861,-5.1882,-5.1928,-5.1959,-5.1954,-5.1971,-5.1967,-5.1972,-5.1875,-5.1858,-5.1974,-5.1974,-5.1974,-5.1974,-5.1974,-5.1974,-5.151,-5.1575,-5.1581,-5.1658,-5.1677,-5.1731,-5.1752,-5.178,-5.1804,-5.187,-5.1909,-5.1922,-5.1948,-5.1996,-5.2039,-5.2044,-5.2061,-5.208,-5.2082,-5.1991,-5.1978,-5.1967,-5.195,-5.2084,-5.2085,-5.2175,-5.2176,-5.2176]},{"header":{"parameterUnit":"m.s-1","parameterCategory":1,"la1":30.2991,"la2":30.254,"lo1":-89.0895,"lo2":-89.0444,"dy":0.0017,"dx":0.0017,"nx":28,"ny":28,"refTime":"2025-03-03T03:00:00:Z","depth":0,"parameterNumber":3,"parameterNumberName":"V-component_of_WINDS"},"data":[0,0,0,0,0,0,0,0,0,0,0,0,0,0,0,0,0,0,0,0,0,0,0,0,0,0,0,0,0,0,0,0,0,0,0,0,0,0,0,0,0,0,0,0,0,0,0,0,0,0,0,0,0,0,0,0,0,0,4.9284,4.9285,0,4.9413,4.9414,4.9416,4.9405,4.9403,4.9401,4.94,4.953,4.9535,4.954,0,0,0,0,0,0,0,0,0,0,0,0,0,4.9029,4.9034,4.9284,4.9285,4.9287,4.9412,4.9414,4.9416,4.9406,4.9403,4.9401,4.9399,4.9528,4.9534,4.9541,0,0,0,0,0,0,0,0,0,0,0,0,0,4.9147,4.9035,4.9283,4.9297,4.9299,4.9412,4.9414,4.9416,4.9406,4.9403,4.94,4.9398,4.9526,4.9534,4.9542,4.9649,0,0,4.9566,4.9569,0,0,0,0,0,0,0,0,4.914,4.9156,4.9293,4.9296,4.9299,4.939,4.9372,4.9494,4.9407,4.9366,4.9399,4.9396,4.9486,4.9497,4.9527,4.9655,4.9661,4.9567,4.9571,4.9575,4.9577,0,0,0,0,0,0,0,4.9132,4.9151,4.9335,4.9295,4.9299,4.9297,4.931,4.9395,4.944,4.9369,4.9368,4.9384,4.9487,4.952,4.953,4.9662,4.9566,4.9573,4.9578,4.9581,4.9888,4.9891,0,0,0,0,0,0,4.9121,4.9144,4.933,4.9338,4.9211,4.9304,4.9319,4.9364,4.9439,4.9448,4.9386,4.9383,4.9507,4.9521,4.9535,4.9667,4.9575,4.9582,4.9587,4.9885,4.9889,4.9893,0,0,0,0,0,0,4.9116,4.9138,4.9325,4.9241,4.9265,4.9311,4.9362,4.9368,4.9401,4.9453,4.946,4.9412,4.9506,4.9524,4.9622,4.9672,4.9586,4.9593,4.9881,4.9886,4.9891,4.9932,0,0,0,0,0,0,4.9108,4.9136,4.9176,4.9242,4.927,4.941,4.9365,4.9372,4.9415,4.9411,4.9478,4.9487,4.9505,4.961,4.9629,4.9681,4.9599,4.9877,4.9883,4.9889,4.9926,4.9938,4.9948,0,0,0,0,0,4.9099,4.9182,4.9179,4.9201,4.9321,4.9412,4.9428,4.9448,4.9419,4.946,4.9494,4.9485,4.9663,4.962,4.9642,4.9697,4.9873,4.9881,4.9889,4.9922,4.9936,4.9948,0,0,0,0,0,0,4.9119,4.9191,4.9188,4.9294,4.9348,4.9411,4.9463,4.9461,4.9524,4.9518,4.9539,4.9555,4.9654,4.9685,4.9635,4.9806,4.9765,4.9777,4.9782,4.9796,4.9806,4.9797,4.9606,0,0,0,0,0,4.9136,4.9204,4.9263,4.9351,4.9378,4.9417,4.9457,4.9468,4.9524,4.9546,4.9587,4.9641,4.971,4.9755,4.982,4.9931,4.9947,4.998,4.9991,4.9999,5.001,5.0074,5.009,4.9918,4.9918,4.9918,0,0,4.9171,4.9219,4.926,4.9357,4.9399,4.947,4.9435,4.9511,4.9564,4.9557,4.9653,4.9685,4.9748,4.9853,4.9902,4.9882,5.0061,5.0009,5.0015,5.0021,5.0083,5.0099,5.0114,4.9923,4.9922,4.9921,0,0,4.9272,4.9314,4.9394,4.9438,4.9504,4.953,4.9549,4.9613,4.9635,4.9732,4.9729,4.9793,4.991,4.9955,4.9994,5.0116,5.011,5.0137,5.0193,5.0255,5.0268,5.028,5.0326,5.0341,5.0147,5.0147,5.0147,0,4.9308,4.9414,4.9435,4.9512,4.9556,4.9555,4.9636,4.9678,4.9762,4.9792,4.9769,4.9919,4.996,5.0078,5.0108,5.0139,5.0163,5.0129,5.0265,5.0277,5.0289,5.0332,5.0349,5.015,5.015,5.015,5.0149,0,4.9456,4.953,4.9586,4.9669,4.9719,4.9797,4.9831,4.9879,4.9887,4.9915,5.0015,5.0066,5.0143,5.0172,5.0179,5.0292,5.0278,5.026,5.0218,5.0308,5.0349,5.0366,5.0154,5.0153,5.0153,5.0152,0,0,4.957,4.9666,4.9687,4.9726,4.98,4.9858,4.9938,5.0015,5.0056,5.0115,5.0183,5.0285,5.027,5.0313,5.0326,5.038,5.0477,5.0356,5.0358,5.0378,5.0607,5.062,5.0639,5.0474,5.0477,5.0479,5.0602,0,4.968,4.9822,4.9844,4.9969,5.0039,5.0042,5.0112,5.0165,5.0195,5.0259,5.0291,5.0363,5.0337,5.0364,5.0418,5.0454,5.0523,5.0445,5.0538,5.0541,5.0523,5.066,5.0674,5.0787,5.0618,5.0621,5.0623,0,4.9825,4.989,5.0022,5.009,5.0121,5.0183,5.0257,5.0318,5.038,5.0398,5.0449,5.0456,5.0541,5.0496,5.0614,5.056,5.06,5.0624,5.0629,5.0638,5.0587,5.0675,5.0824,5.0841,5.0648,5.0646,5.0644,0,4.9898,5.0018,5.0113,5.0146,5.0227,5.0272,5.0308,5.0367,5.0413,5.0478,5.0508,5.0582,5.0622,5.0679,5.0707,5.0672,5.0824,5.078,5.0841,5.0841,5.0873,5.0871,5.1031,5.0898,5.0897,5.0897,5.0897,0,5.0018,5.0099,5.0148,5.0206,5.0298,5.0325,5.0415,5.045,5.0503,5.0569,5.0575,5.0637,5.067,5.0737,5.0759,5.0855,5.0872,5.089,5.0895,5.089,5.0888,5.0916,5.0909,5.0901,5.09,5.09,5.0899,0,5.0114,5.0149,5.0254,5.0323,5.0343,5.0408,5.0467,5.0525,5.0556,5.064,5.0661,5.0709,5.0789,5.0822,5.0919,5.0935,5.1045,5.1043,5.1024,5.1026,5.1085,5.108,5.127,5.1297,5.1145,5.1146,5.1147,0,5.0188,5.0251,5.0328,5.0374,5.0412,5.0484,5.0532,5.0561,5.0611,5.0688,5.0737,5.0818,5.0883,5.1012,5.1055,5.113,5.1131,5.1193,5.1143,5.1137,5.1134,5.113,5.1138,5.1202,5.1204,5.1205,5.1206,0,5.0317,5.0333,5.0401,5.0478,5.0535,5.0596,5.0656,5.0693,5.0731,5.0787,5.087,5.0921,5.1023,5.1103,5.1182,5.1219,5.122,5.1222,5.124,5.1236,5.1223,5.1232,5.105,5.1217,5.1216,5.1215,5.1215,5.1214,5.0406,5.0463,5.0527,5.0605,5.0653,5.071,5.0768,5.0807,5.0877,5.0962,5.0975,5.1065,5.1128,5.1234,5.1275,5.1345,5.133,5.1356,5.1363,5.1369,5.1374,5.1212,5.136,5.1359,5.1359,5.1359,5.1359,0,5.0536,5.0578,5.065,5.0734,5.0796,5.0792,5.0859,5.0911,5.0989,5.1048,5.1114,5.1211,5.129,5.1341,5.1421,5.1468,5.147,5.1488,5.1485,5.1494,5.1382,5.1359,5.1485,5.1485,5.1484,5.1484,5.1484,5.1484,5.0612,5.0709,5.0733,5.0855,5.0897,5.0985,5.1024,5.1077,5.1125,5.1232,5.1299,5.1332,5.1388,5.1473,5.1546,5.1559,5.1589,5.1608,5.162,5.1514,5.1501,5.1489,5.1467,5.1614,5.1614,5.1726,5.1727,5.1728]}]]